Theta_e
312 315 315 316 315 314 313 312 312 312 312 311 311 312 312 311 310 310 310 310 309 308 309 309 309 309 309 309 309 308 309 309 309 308 309 309 309 309 310 310 310 309 309 309 308 307 308 308 308 308 308 308 307 307 306 305 306 306 306 306 306 306 305 304 304 304 304 305 305 304 305 305 305 305 305 305 305 304 304 303 301 299 297 296 296 296
310 314 315 315 314 312 312 311 310 310 311 311 312 312 311 311 310 310 310 310 308 308 310 310 310 309 309 309 309 309 309 309 310 309 309 309 309 310 310 310 310 310 310 310 309 307 307 308 308 307 308 307 307 307 307 306 306 306 306 306 305 305 304 304 304 303 303 304 304 304 304 304 303 303 303 303 303 303 302 301 300 298 297 296 296 296
313 313 314 313 311 311 312 312 311 311 312 312 312 312 312 311 311 310 310 312 310 309 311 312 310 309 309 309 309 309 310 309 310 310 310 310 310 310 310 311 311 310 311 309 308 307 306 306 307 307 307 307 307 306 306 306 305 305 305 305 305 304 304 304 303 303 303 303 303 303 302 302 301 301 301 301 301 301 300 299 298 297 297 296 296 296
317 317 314 311 309 310 312 312 312 311 311 313 313 312 313 312 312 312 312 316 313 308 311 310 309 310 310 309 310 309 309 310 310 310 310 311 310 310 310 311 310 310 310 309 310 310 307 304 304 305 305 306 306 306 305 305 305 304 305 305 305 304 304 304 303 303 303 302 302 301 301 301 300 300 300 300 300 299 298 298 297 297 296 296 296 296
315 316 314 311 310 310 312 311 311 312 312 313 313 312 312 312 312 312 312 314 312 312 313 310 310 314 313 314 316 314 310 310 309 309 311 311 309 310 310 310 310 311 312 311 313 314 310 306 303 303 304 305 305 305 305 305 304 304 304 304 304 304 304 303 303 302 302 301 301 300 299 299 299 298 298 297 297 297 297 297 297 296 296 296 296 296
313 314 312 314 313 310 311 311 313 315 312 312 315 314 312 312 312 312 313 311 312 317 315 311 314 317 316 318 324 323 318 315 313 314 315 312 310 312 313 310 309 312 314 314 314 314 311 305 301 302 304 304 304 304 304 304 303 303 303 303 304 304 303 303 302 302 301 301 301 300 299 298 297 297 297 297 297 296 296 297 296 296 296 295 296 296
313 312 310 315 316 313 312 313 316 315 311 313 318 318 314 313 313 313 313 311 315 318 313 313 318 316 315 317 319 320 318 319 318 316 313 311 313 315 314 309 310 313 314 315 315 313 310 304 302 305 304 304 304 304 303 303 303 303 302 302 302 303 303 302 302 301 301 301 300 300 299 299 298 298 298 298 297 297 297 296 296 296 295 295 295 295
313 311 310 314 317 316 314 314 316 313 312 316 318 320 320 316 316 314 312 312 316 315 312 314 316 314 315 315 316 316 316 318 317 314 312 312 314 314 310 310 313 315 314 315 315 311 308 303 303 304 303 304 304 303 303 302 302 302 302 302 302 302 302 301 301 301 300 300 300 300 300 299 299 299 299 298 297 297 297 296 295 295 295 295 295 295
312 312 313 315 316 316 316 316 316 312 314 318 314 314 317 315 315 314 314 314 313 313 314 314 313 316 319 315 313 314 317 321 318 316 314 314 316 312 307 310 314 314 312 311 310 309 308 304 301 301 302 304 304 302 302 302 301 301 301 301 301 302 302 301 301 300 300 300 300 299 299 299 299 299 299 298 298 297 297 296 295 295 294 294 294 295
311 311 314 318 317 316 318 319 317 313 314 315 310 311 314 314 314 313 314 316 316 316 316 315 314 317 320 317 316 315 316 323 323 320 316 315 320 313 306 311 313 312 312 309 309 310 307 303 301 302 302 303 303 301 301 301 301 301 300 301 301 301 301 301 301 300 300 300 300 299 299 299 299 299 298 298 298 297 297 296 295 295 294 294 294 294
310 307 309 315 316 315 318 315 310 312 313 311 311 315 316 315 315 315 317 317 318 318 316 317 316 316 318 320 321 318 318 321 321 320 318 320 321 312 307 311 310 309 311 310 311 311 305 301 301 303 302 301 301 301 300 300 300 300 300 300 300 300 300 300 300 300 300 300 299 299 299 298 298 298 298 298 297 297 296 296 295 295 294 294 294 294
309 308 310 316 316 313 314 311 307 308 309 311 317 317 315 317 317 318 320 317 317 321 319 316 314 314 318 319 317 318 318 315 314 314 318 321 319 311 308 311 310 310 311 311 313 311 306 303 302 301 301 300 299 299 299 298 299 299 300 300 300 300 299 300 300 300 300 299 299 299 298 298 298 298 298 297 297 297 297 296 296 295 295 294 294 294
317 315 313 313 312 310 311 313 311 308 308 311 316 314 313 318 318 317 320 318 318 321 316 311 311 312 315 315 314 315 314 312 312 312 313 315 315 312 311 312 313 313 314 313 312 309 306 304 302 299 299 298 297 297 297 297 297 298 298 299 299 299 299 299 299 299 299 299 299 299 298 298 298 298 298 297 297 297 296 296 295 295 295 294 294 294
325 321 312 310 312 311 311 313 314 314 311 310 312 314 315 317 318 320 321 318 319 320 313 308 312 313 314 317 317 314 313 315 314 311 312 313 313 313 312 313 315 315 314 312 309 305 303 301 299 298 297 296 296 295 295 296 296 296 296 297 297 297 297 297 297 298 298 299 299 298 298 298 297 297 297 297 297 296 296 296 295 295 295 295 295 295
327 326 320 318 317 313 309 311 318 319 312 309 313 316 315 318 323 325 324 323 324 323 314 308 314 318 318 318 317 314 315 316 313 310 312 313 309 309 312 314 315 313 309 308 305 302 300 297 296 296 295 295 294 294 294 295 296 295 295 295 295 296 295 295 296 296 297 297 298 298 297 297 297 297 297 297 297 296 296 296 296 296 296 296 296 296
320 325 324 317 312 311 311 313 317 317 313 312 314 315 314 318 324 322 322 325 324 322 317 313 316 318 315 314 314 314 313 313 314 315 315 313 308 308 312 312 311 308 304 303 302 299 297 295 294 294 294 294 294 294 293 294 294 294 294 294 294 294 294 294 295 295 296 296 296 297 296 296 297 296 296 296 296 296 296 296 296 296 296 296 296 296
318 324 321 311 309 312 314 314 313 314 316 313 312 314 314 315 318 318 320 322 320 320 320 319 319 317 315 317 315 314 313 313 316 317 315 315 311 309 310 308 305 303 301 300 299 297 296 294 293 293 293 293 293 293 293 293 293 294 294 294 294 294 294 294 294 294 295 295 295 296 296 296 296 296 296 296 296 296 296 296 296 296 296 296 296 295
321 323 320 313 313 312 308 310 311 312 314 314 315 316 314 312 313 316 319 319 319 320 321 321 321 319 320 321 315 314 317 315 314 316 316 315 311 307 306 304 301 298 297 298 297 295 294 293 293 293 293 293 293 293 293 293 293 293 293 293 293 293 293 293 293 294 294 294 294 295 295 295 295 295 296 295 295 295 295 295 295 295 295 295 296 296
318 318 320 316 315 313 306 308 313 310 309 313 316 314 313 316 315 316 318 319 319 321 322 322 321 319 320 320 316 316 318 314 312 314 313 310 305 303 302 300 298 295 294 295 294 294 294 292 292 293 293 293 293 293 293 293 292 292 292 293 293 293 293 293 293 293 293 293 293 294 294 294 295 295 295 295 295 295 295 295 295 295 295 295 295 295
317 317 320 316 314 313 310 312 316 315 310 309 311 310 311 315 315 315 318 319 320 321 322 322 322 320 319 318 316 317 316 312 311 312 308 303 301 299 296 296 295 294 293 293 293 293 293 292 292 292 292 292 292 292 292 292 292 292 291 292 292 292 292 293 293 293 292 292 293 293 293 294 294 294 294 295 295 295 295 295 295 295 295 295 295 294
317 317 318 317 316 315 314 315 317 318 315 311 312 313 311 312 314 316 316 317 318 318 320 322 321 320 322 321 317 316 314 310 308 308 303 299 297 295 293 293 293 293 292 292 292 292 292 292 292 292 292 291 291 291 291 291 291 291 291 291 291 291 291 292 292 292 292 292 292 292 292 293 293 293 294 294 294 294 294 294 295 294 294 294 294 294
317 318 316 317 318 316 316 318 318 318 318 315 314 315 314 314 316 317 316 316 316 315 317 319 319 320 325 326 320 315 311 305 303 304 300 296 294 293 293 292 292 292 292 291 291 291 291 291 291 291 291 291 291 290 290 290 290 290 290 290 290 290 290 291 291 292 292 292 292 291 291 292 292 292 293 293 293 293 294 294 294 294 294 294 293 293
318 319 317 317 317 316 318 319 316 315 314 314 315 315 314 314 315 316 317 318 317 317 316 318 318 320 323 324 318 312 305 298 298 299 297 295 294 293 292 292 291 291 291 291 291 291 290 290 290 290 290 290 290 290 290 290 290 290 289 289 289 289 290 290 290 291 291 292 291 291 291 291 291 291 291 292 292 293 293 293 293 294 293 293 293 293
316 317 317 317 318 318 318 317 314 312 312 312 314 315 314 313 313 315 316 317 318 318 317 319 319 319 321 321 313 304 299 296 295 295 294 294 293 292 292 292 291 291 291 291 291 290 290 290 290 290 290 290 290 290 290 289 289 289 289 289 289 289 289 290 290 290 290 291 291 291 291 291 291 290 291 291 291 292 292 292 293 293 293 292 292 292
313 316 318 317 318 319 318 316 314 312 314 316 317 317 315 314 315 315 314 315 316 316 316 318 318 316 320 321 310 300 298 297 294 292 293 293 292 292 292 292 291 291 291 290 290 290 290 290 289 289 289 289 290 290 289 289 289 289 289 289 289 289 289 289 289 289 289 290 290 290 291 291 291 290 290 290 290 290 291 291 292 292 292 292 292 292
313 314 316 316 319 319 317 316 314 312 314 315 316 317 315 314 316 315 315 316 316 316 316 317 317 315 316 319 312 304 300 297 294 292 292 292 292 292 292 292 292 291 291 291 290 290 290 290 290 289 289 289 289 289 289 289 289 289 289 288 288 288 289 289 289 289 289 289 290 290 290 290 290 290 290 290 289 290 290 290 290 291 291 291 291 291
313 312 314 314 316 316 315 315 314 312 312 313 314 314 313 313 313 313 314 316 316 317 316 315 316 315 315 315 314 309 303 297 294 292 291 292 292 292 292 292 292 291 291 291 291 290 290 290 290 289 289 289 289 289 289 289 289 289 288 288 288 288 288 289 289 289 289 289 289 289 289 289 289 290 290 290 289 289 289 289 289 290 290 290 291 291
312 312 313 313 313 314 314 314 312 311 311 312 313 313 312 312 312 312 313 314 314 315 316 315 315 314 314 314 312 308 303 297 293 292 291 291 292 292 292 292 292 292 291 291 291 291 290 290 290 289 289 289 289 289 289 289 289 288 288 288 287 287 288 288 288 288 288 289 289 289 289 289 289 289 290 290 290 290 289 289 289 289 289 290 290 290
311 310 310 311 311 311 311 310 309 308 308 309 310 310 310 310 310 311 311 311 312 313 313 313 312 310 311 311 306 301 298 295 292 291 291 291 291 292 292 292 292 292 292 292 292 291 290 290 290 289 289 289 289 289 289 288 288 288 288 287 287 287 287 288 288 288 288 288 288 288 288 288 288 288 289 290 290 291 290 289 289 289 288 289 289 289
308 307 308 308 307 307 307 307 306 305 305 305 305 307 307 307 308 308 308 308 309 309 308 307 307 308 308 306 300 295 294 294 293 292 292 291 291 292 291 292 292 292 292 292 292 291 290 290 290 289 289 289 288 288 288 288 288 287 287 286 286 286 287 287 287 287 287 288 288 288 288 288 288 288 288 288 290 290 291 290 289 289 288 288 288 289
306 306 306 305 304 305 305 304 304 303 303 302 302 303 303 303 303 304 304 304 304 304 305 304 306 308 303 297 295 294 293 294 294 293 293 292 292 292 292 291 291 291 292 292 292 291 291 290 290 289 288 288 288 288 288 288 287 287 286 286 285 286 286 287 287 287 287 287 287 287 287 287 287 287 287 287 288 289 290 291 291 290 289 288 288 288
304 304 304 303 303 303 303 303 302 300 300 300 299 300 300 300 301 301 302 302 302 303 304 304 306 305 299 293 294 294 293 293 294 293 293 293 292 293 292 291 291 291 291 292 292 291 291 291 290 289 288 288 288 288 288 288 287 286 286 285 285 285 286 286 286 286 286 286 287 287 286 287 286 286 286 286 287 288 289 290 291 291 290 289 288 288
301 301 301 301 301 301 301 300 299 298 298 298 298 298 298 298 298 299 300 300 302 303 304 304 303 300 296 294 294 294 294 294 293 293 294 293 292 292 292 291 291 291 291 292 292 292 292 290 289 288 288 288 288 288 288 287 286 286 285 284 284 284 285 285 285 285 285 286 286 286 286 286 286 286 286 286 287 287 288 289 289 290 290 289 288 288
300 300 299 299 299 299 299 298 297 297 297 297 298 300 300 299 299 299 299 301 304 303 301 300 299 296 295 295 295 294 295 294 293 293 293 293 292 292 292 291 291 291 291 292 292 292 292 289 288 288 288 288 288 288 288 287 286 285 284 283 283 284 284 284 284 284 285 285 285 285 285 285 285 285 285 286 287 287 287 287 288 289 289 289 288 288
298 298 298 298 298 298 298 297 296 296 296 297 300 300 298 300 301 300 300 301 301 299 296 296 296 295 295 295 294 294 294 293 292 293 292 292 292 292 292 292 292 292 292 292 292 292 291 289 288 288 288 288 288 287 287 286 285 285 283 282 282 283 283 283 283 283 284 284 284 284 284 284 284 284 285 285 286 287 287 287 287 287 288 288 288 287
297 296 296 297 297 297 297 297 296 295 295 297 299 298 296 298 299 299 299 299 296 296 295 295 295 294 295 295 294 294 294 293 293 293 292 292 292 292 292 292 293 293 292 292 291 291 290 289 289 289 288 288 287 287 286 286 285 284 282 282 282 282 282 282 282 283 283 283 283 283 283 283 283 283 284 286 286 286 286 286 286 286 287 287 287 287
295 296 296 295 296 296 295 296 296 295 295 296 296 296 296 297 297 297 299 298 295 295 294 294 295 296 296 296 295 294 293 293 292 292 292 292 292 291 292 292 292 292 291 290 290 290 290 290 290 289 288 288 287 286 286 285 284 283 282 281 281 281 281 281 281 282 282 282 282 282 281 281 281 282 284 286 286 286 285 285 285 285 285 286 286 286
294 295 296 295 296 296 295 295 296 295 296 297 297 296 295 296 296 295 297 298 296 294 293 294 296 296 295 295 294 293 293 293 291 291 293 295 293 291 293 293 291 290 290 290 290 290 290 290 289 288 287 287 286 286 285 284 283 282 281 280 280 280 280 280 281 281 281 281 281 280 280 279 279 281 284 286 286 285 284 284 284 284 284 284 285 285
294 295 295 295 296 296 296 296 296 296 297 299 298 295 294 295 295 294 296 296 293 292 292 293 295 296 295 295 294 293 293 293 291 289 291 294 294 292 293 293 290 288 289 290 289 289 289 288 288 287 286 286 285 285 284 284 283 282 280 280 279 279 279 279 280 280 280 280 279 279 278 278 278 281 284 284 283 283 282 282 282 282 283 283 283 284
293 294 295 295 295 296 296 296 296 296 297 298 297 295 294 295 295 295 296 294 291 291 292 293 294 296 295 294 294 293 293 292 291 290 289 291 293 292 291 291 290 287 287 288 288 288 288 287 286 286 285 285 284 284 283 283 282 281 280 279 278 278 278 278 279 279 279 279 277 277 276 276 278 280 283 282 281 280 280 280 281 281 281 282 282 283
293 293 293 294 295 296 296 296 296 296 298 299 298 295 294 293 293 295 295 292 291 292 292 293 294 295 295 294 293 293 293 292 291 290 289 289 290 290 288 287 287 286 286 287 286 286 286 285 285 285 284 284 283 282 282 281 280 279 278 278 277 277 277 277 278 278 278 277 276 275 275 275 277 279 280 279 278 278 277 278 278 279 280 281 281 282
292 292 292 293 294 294 295 296 295 294 296 298 296 292 291 292 295 295 293 291 291 291 291 292 294 294 293 292 292 291 291 291 290 290 289 289 289 289 288 286 286 286 285 285 285 284 284 284 283 283 282 282 281 281 280 280 279 278 277 277 276 276 276 276 277 276 276 275 274 274 274 275 276 276 276 275 275 275 275 276 277 277 278 280 280 281
292 293 293 294 294 292 292 293 294 293 293 294 293 290 290 294 297 295 291 290 290 290 289 290 291 291 291 291 290 290 289 289 289 289 289 289 288 288 288 286 286 285 284 283 283 283 282 282 281 281 281 281 280 279 279 278 277 277 276 276 276 276 275 275 275 275 274 273 273 273 273 273 273 273 272 272 272 273 273 274 275 276 277 279 280 280
292 293 293 293 293 292 291 293 295 295 293 292 292 292 293 294 294 291 289 289 290 289 289 289 289 289 290 289 289 289 288 288 288 288 288 289 288 288 288 286 284 283 282 282 282 281 281 280 280 279 279 279 278 278 277 277 276 275 275 275 275 275 274 274 274 273 272 272 272 271 271 271 271 271 270 271 271 271 272 273 274 276 277 278 280 280
293 293 293 292 292 292 292 293 294 294 293 292 292 292 292 291 290 290 289 289 289 289 288 288 288 288 288 288 287 287 287 287 287 288 288 288 288 288 286 284 282 281 281 281 280 280 279 279 278 278 277 277 277 276 276 275 275 274 274 274 274 274 273 273 272 271 271 270 270 270 270 269 269 269 269 269 270 270 271 272 274 275 276 278 279 280
292 292 291 290 290 290 291 291 290 291 291 291 290 290 290 290 289 289 289 289 289 288 288 287 287 287 287 286 286 286 286 287 287 287 287 286 285 284 282 281 280 280 279 279 278 278 278 277 277 276 275 275 275 275 274 274 274 273 273 273 273 272 272 271 271 270 270 269 269 269 268 268 268 268 268 268 269 269 270 272 273 275 276 277 279 279
290 290 289 289 290 290 290 289 289 290 290 290 289 290 290 290 289 289 289 288 288 288 287 286 286 286 285 286 285 285 285 285 285 284 283 282 281 280 279 279 278 277 277 277 277 276 276 275 274 274 274 274 274 274 273 273 273 272 272 272 271 271 270 270 269 269 268 268 268 267 267 267 267 267 267 267 268 269 270 271 272 274 275 277 278 279
290 290 289 289 289 289 289 289 289 289 290 289 289 289 289 289 289 289 288 288 287 286 285 284 284 284 284 283 283 282 282 282 280 279 279 278 278 278 277 277 276 276 276 275 275 274 274 273 273 272 272 272 272 272 272 272 271 271 271 271 270 269 269 268 267 267 267 267 266 266 266 266 266 266 266 267 267 268 269 270 271 272 274 275 277 278
290 290 290 290 289 289 289 289 289 289 289 289 289 289 289 288 288 288 287 285 285 284 282 281 280 280 280 279 278 278 279 278 277 277 276 276 276 276 275 275 274 274 274 273 273 272 272 271 271 271 271 271 271 271 271 270 270 270 269 269 268 268 267 266 266 266 265 265 265 265 265 265 265 265 266 266 266 267 268 269 270 271 272 273 275 277
290 289 290 290 289 289 289 289 289 289 289 288 288 289 288 286 285 286 285 282 280 279 278 278 278 277 276 276 275 275 276 276 275 275 275 274 274 274 273 273 272 272 272 271 271 271 270 270 270 270 270 270 270 269 269 269 268 268 268 267 266 266 265 265 265 264 264 264 264 264 264 264 264 265 265 265 265 266 266 267 269 270 272 273 274 276
290 289 289 289 289 289 289 289 289 289 288 288 288 286 282 280 281 283 281 278 276 275 274 274 276 275 274 274 273 273 274 273 273 273 272 272 272 272 271 271 270 270 270 270 270 269 269 269 268 268 268 268 267 267 267 266 266 266 265 265 264 264 264 263 263 263 263 263 263 263 263 263 263 264 264 264 265 265 266 267 268 270 272 273 275 276
Wind_Speed
3 3 3 5 9 11 11 11 12 9 4 1 2 4 6 7 8 7 10 8 2 5 9 10 19 19 14 14 12 13 13 13 16 17 16 15 15 13 11 15 14 14 14 8 12 14 15 17 18 20 21 22 24 26 28 30 32 35 36 36 38 38 39 39 40 40 41 41 40 39 42 46 46 44 44 46 48 49 50 50 50 50 50 49 49 48
2 5 7 11 12 8 6 6 6 6 5 4 5 6 6 5 10 10 9 9 1 2 6 6 16 19 15 15 13 14 15 17 19 15 15 17 16 14 13 17 14 11 9 7 11 13 15 16 17 17 18 20 22 24 26 28 31 33 34 36 37 36 37 40 41 41 42 44 43 43 44 45 42 42 45 46 47 48 48 49 49 50 50 50 50 50
1 5 10 14 8 1 2 3 2 3 5 6 4 5 6 3 8 9 6 7 2 1 6 8 15 16 14 17 18 17 17 17 15 10 12 15 16 16 14 12 10 9 9 8 7 8 12 17 19 17 17 18 21 23 23 25 28 30 32 34 35 35 37 39 41 41 42 43 42 40 38 37 36 37 41 42 43 44 45 46 47 48 49 50 51 50
3 6 12 13 6 3 3 3 4 1 4 6 4 4 6 3 4 6 4 5 3 3 6 10 15 14 11 15 15 14 13 13 14 11 11 13 16 17 13 8 8 9 10 9 7 7 11 16 19 18 16 16 18 21 22 24 26 28 31 33 34 35 37 39 40 41 41 38 37 35 32 31 31 32 35 37 38 40 42 43 45 47 49 50 50 50
7 5 5 4 6 8 7 3 2 4 6 6 6 5 8 8 8 9 5 6 6 5 4 7 12 10 4 5 6 5 5 9 11 11 13 14 11 10 10 7 6 8 7 7 7 8 8 11 17 18 16 14 15 18 21 22 24 26 28 31 33 34 35 37 39 40 38 35 34 32 27 24 26 27 28 33 38 38 40 43 45 47 48 48 49 49
8 4 3 4 4 6 6 5 5 7 7 6 5 10 14 13 10 11 8 7 5 4 3 5 7 7 1 1 4 4 4 6 7 10 15 8 3 4 7 4 7 5 4 4 6 6 6 9 13 16 17 15 14 15 17 19 20 23 25 26 29 32 34 35 36 37 38 37 36 35 32 29 29 28 32 40 42 41 42 45 46 46 47 47 48 48
4 3 1 3 4 6 5 6 6 8 5 6 5 11 13 11 9 10 7 3 1 3 2 3 1 8 5 1 6 4 2 8 10 12 11 5 5 5 3 6 5 1 3 5 6 6 7 9 9 13 19 19 18 17 16 17 16 17 20 22 25 28 31 32 33 35 37 37 37 38 37 35 35 35 38 41 40 40 43 44 44 46 47 47 48 48
3 1 4 4 5 6 5 5 7 10 5 6 5 7 9 8 8 6 4 3 3 3 3 1 4 6 9 4 4 2 4 10 13 11 9 5 7 7 6 7 2 2 3 4 6 6 7 7 7 12 18 22 21 20 19 17 15 14 15 18 21 24 27 28 30 33 35 36 36 37 36 34 36 36 34 32 32 35 38 39 41 43 45 46 47 47
3 2 2 5 5 4 6 5 8 12 6 6 2 5 5 5 4 4 4 4 2 3 4 2 4 3 9 4 2 1 4 8 10 10 10 7 8 6 6 5 4 5 4 4 5 5 6 8 12 15 19 23 24 23 20 18 15 12 11 14 16 19 23 25 26 29 33 34 33 34 35 34 34 32 27 26 28 31 33 36 38 39 42 44 45 47
1 3 6 7 5 5 7 4 8 12 7 4 5 6 4 3 3 4 3 2 2 3 4 4 4 2 10 5 4 2 2 6 7 7 8 7 5 3 6 3 3 5 5 4 5 5 8 11 14 18 22 25 27 25 22 19 15 11 9 10 13 16 20 22 25 28 31 33 33 34 35 33 31 28 25 24 26 29 31 33 35 36 39 41 43 45
2 1 3 5 4 5 4 1 3 7 5 4 6 5 5 4 4 3 1 3 1 5 5 9 10 5 6 4 4 3 3 5 4 4 6 7 3 6 7 1 3 4 5 5 6 7 9 11 16 22 26 28 29 28 24 21 16 13 8 7 9 13 17 20 23 27 30 33 34 33 33 32 29 26 26 26 26 29 31 32 34 35 36 38 41 43
0 2 2 4 3 4 5 3 2 1 3 4 4 3 2 3 3 4 4 3 1 6 5 8 10 8 7 5 1 4 6 5 3 3 5 9 8 3 5 1 4 3 4 6 7 8 9 12 18 23 26 28 32 32 28 23 18 14 11 8 7 10 15 19 22 26 29 32 33 33 31 30 29 27 28 29 29 30 32 34 34 34 35 36 37 39
1 5 4 3 2 5 5 1 2 3 2 3 3 3 0 3 3 2 3 0 3 6 4 2 3 5 9 6 4 10 13 8 5 6 7 8 10 4 4 4 5 4 6 7 7 7 8 10 13 18 21 24 28 30 30 27 23 19 15 12 10 9 11 16 19 23 27 30 32 32 31 30 29 28 29 30 29 29 31 32 32 33 35 36 37 40
4 4 1 1 3 4 7 5 3 1 3 4 4 4 3 2 2 3 3 2 4 5 4 1 1 4 7 5 7 13 13 8 3 5 6 6 7 5 3 4 5 6 6 6 6 8 9 9 11 15 19 21 23 27 30 31 29 26 21 17 14 12 10 13 17 20 23 26 29 30 30 29 28 28 29 29 28 27 28 29 30 32 35 37 40 43
3 7 3 5 2 4 9 7 4 4 4 5 3 3 3 3 4 4 3 4 4 3 3 2 2 4 3 3 5 9 8 6 3 4 4 4 4 2 3 5 6 6 7 6 7 9 10 11 15 18 21 24 26 30 33 34 34 32 28 23 18 15 12 11 13 16 19 23 25 27 28 28 27 27 27 28 28 27 27 28 29 32 35 37 40 42
3 8 6 3 1 7 8 4 5 5 2 3 3 3 2 4 4 3 3 4 2 2 3 2 3 5 4 6 10 8 7 6 5 4 3 4 4 5 5 6 6 7 8 8 8 10 11 13 17 19 21 24 26 30 33 35 35 34 32 28 24 20 16 13 12 13 16 19 21 23 25 26 27 27 27 27 27 27 28 29 30 33 35 36 37 38
2 6 4 1 1 5 8 4 4 3 3 1 2 3 4 3 4 2 3 1 2 3 4 3 5 7 6 10 9 2 2 4 6 5 4 4 6 8 6 7 7 8 9 9 9 10 11 14 18 21 23 25 27 30 33 34 35 34 32 30 28 26 22 18 15 14 14 16 19 21 23 24 25 26 27 28 27 27 27 28 30 33 34 35 36 36
4 6 4 4 4 4 3 3 1 1 4 5 3 4 3 2 2 1 1 1 1 6 5 3 8 9 6 7 5 5 3 4 6 6 5 6 7 9 8 8 10 10 10 10 10 10 11 14 18 22 24 28 29 31 32 32 33 35 35 33 31 29 27 24 21 18 16 15 17 20 21 22 24 25 27 28 28 27 27 29 31 32 34 36 36 37
2 5 6 4 6 3 3 2 1 3 2 4 3 2 2 2 3 1 2 2 4 6 4 4 9 9 6 7 8 7 6 1 3 6 8 10 10 10 10 11 11 11 10 10 10 9 9 12 17 20 23 27 29 29 30 32 34 36 36 36 35 33 31 30 27 23 20 18 17 18 20 22 23 25 27 28 29 28 28 30 31 32 34 36 36 37
1 4 5 0 2 1 3 1 4 3 1 1 1 2 1 3 3 2 2 2 3 6 5 5 7 6 5 8 11 11 5 1 4 7 9 10 11 10 10 10 10 10 9 8 8 7 7 9 14 17 19 23 25 27 29 31 34 36 36 37 36 35 35 35 33 30 26 22 19 18 19 21 22 24 26 27 28 30 31 32 32 33 35 36 36 36
1 4 6 1 1 1 2 4 6 7 4 2 1 3 2 2 1 2 2 2 4 7 7 7 8 6 5 5 7 5 3 6 6 7 7 8 10 9 8 7 7 7 7 6 6 6 6 8 13 16 18 20 23 25 28 29 32 34 35 36 36 36 37 37 36 34 31 27 23 20 20 20 21 22 24 26 27 30 32 33 34 34 35 35 36 36
1 3 6 4 3 4 6 6 6 8 6 5 5 5 6 5 3 4 6 5 5 6 6 8 10 7 3 4 6 4 6 7 6 7 7 7 7 6 6 6 6 6 6 5 5 4 5 7 10 12 15 18 20 23 26 28 30 32 33 33 34 36 37 37 36 35 34 31 28 25 22 21 21 21 22 25 27 29 30 31 33 34 35 36 36 36
3 1 3 6 6 7 9 6 4 5 3 2 3 4 5 5 5 6 8 5 4 5 4 7 9 5 3 6 8 6 8 7 7 8 8 6 5 6 6 6 6 6 7 7 6 6 6 9 13 16 19 22 24 26 27 28 28 29 30 31 31 32 33 33 33 34 34 34 32 29 27 25 23 21 21 22 25 28 29 30 31 33 35 36 36 36
2 2 3 7 5 5 8 7 0 3 1 2 3 4 4 4 5 6 6 3 4 6 5 7 9 3 2 5 3 8 9 7 8 8 7 5 6 7 7 7 7 7 7 8 8 7 9 13 17 20 23 25 26 28 28 29 29 29 30 31 31 31 32 32 33 34 35 35 34 33 32 30 28 25 23 22 24 26 27 29 30 31 33 35 35 36
1 1 2 3 4 3 5 5 3 2 0 2 4 4 4 5 7 6 4 2 4 7 9 11 9 4 1 1 6 10 7 7 8 7 6 6 6 6 7 8 8 8 9 9 10 10 10 12 14 15 17 19 21 24 26 27 29 30 31 33 33 33 34 35 35 36 35 35 35 35 35 33 32 29 27 26 25 26 27 28 29 30 32 33 34 35
1 2 1 2 4 5 5 5 2 0 1 1 2 3 2 4 6 6 5 5 5 7 10 10 9 6 5 3 5 7 6 6 6 5 5 5 4 5 5 6 7 8 10 11 11 11 11 10 10 12 15 16 18 19 21 23 25 26 28 31 32 32 33 33 34 34 34 34 34 35 35 35 34 32 30 28 27 27 27 27 27 28 30 31 33 34
0 2 4 5 7 7 7 7 3 2 2 2 4 6 5 4 5 4 5 6 6 8 10 10 11 11 9 7 6 4 4 4 3 4 4 4 4 4 4 4 4 4 5 6 7 8 9 9 10 12 15 17 18 20 20 21 22 23 24 27 29 30 30 31 32 32 31 31 31 33 35 35 35 33 32 30 28 27 26 26 27 27 28 29 30 32
2 4 6 9 11 9 9 9 6 4 4 5 6 8 8 7 7 8 10 10 8 8 7 7 9 10 8 7 6 3 2 2 3 3 2 2 2 3 3 4 4 4 3 4 4 4 5 6 6 8 12 15 18 20 21 22 23 23 23 25 27 28 29 29 29 29 29 29 28 30 32 34 35 35 34 33 31 29 27 26 26 26 27 27 28 30
2 5 7 9 11 9 9 8 5 4 5 5 6 7 7 9 11 13 15 12 9 9 9 8 11 15 14 8 4 2 1 2 3 2 2 1 2 2 2 3 4 5 6 5 5 4 4 4 4 5 8 10 13 15 17 18 21 22 23 25 28 29 29 29 28 28 28 27 26 27 28 30 32 34 35 35 34 33 31 29 27 26 25 26 27 28
2 4 4 4 7 6 7 8 6 5 6 7 7 7 9 12 15 15 15 14 13 15 16 16 19 20 13 4 4 3 1 2 3 3 3 3 3 2 2 1 1 3 4 5 5 5 4 5 5 6 8 10 11 14 15 16 18 19 20 23 25 27 27 28 28 27 27 26 26 27 27 28 30 33 35 35 35 35 34 32 29 27 25 25 25 26
2 3 3 2 4 6 7 8 8 7 8 9 9 10 13 16 17 16 16 16 16 17 17 17 19 15 5 3 4 2 1 2 3 3 4 3 3 3 3 2 2 3 4 4 5 5 4 5 5 6 8 10 12 14 15 17 18 19 19 22 23 24 24 24 24 25 26 26 26 27 28 28 29 31 33 34 35 36 36 35 33 30 28 26 25 26
3 3 4 4 5 6 7 10 9 8 9 11 11 14 19 19 16 15 15 15 14 14 15 14 12 7 2 3 1 2 2 2 3 4 4 4 4 4 4 3 3 4 4 5 5 5 5 5 5 6 8 11 13 14 14 16 17 17 19 22 23 23 23 22 22 23 23 24 25 27 28 28 30 31 32 32 33 34 35 35 34 33 31 29 27 26
2 3 3 4 5 6 8 8 5 6 8 11 11 14 18 18 16 15 15 15 12 8 9 10 6 2 3 2 1 1 3 3 3 4 4 4 5 5 5 5 4 4 5 5 5 6 6 5 6 8 10 13 14 15 16 16 16 16 18 21 23 23 22 22 22 22 22 22 23 25 26 28 29 30 31 31 31 31 32 33 33 32 31 30 28 26
5 7 6 4 4 7 9 5 4 5 11 11 7 6 8 11 12 13 12 10 7 3 2 2 1 3 3 4 3 4 4 3 3 4 5 5 4 5 6 6 5 5 6 6 6 6 6 6 8 10 12 13 15 16 17 17 17 17 19 22 23 22 22 23 24 23 21 21 22 23 24 26 27 29 30 30 30 30 31 31 31 31 30 29 28 26
8 9 6 3 4 5 4 3 6 11 10 6 3 1 3 3 4 6 7 6 5 2 3 4 3 4 4 4 5 5 6 5 4 5 7 6 5 6 7 6 6 6 6 6 6 6 6 7 10 11 13 15 15 16 17 17 17 19 22 23 22 22 22 23 24 24 23 23 24 24 25 26 27 28 28 28 28 28 30 30 30 31 31 29 27 26
9 7 4 3 3 2 1 3 8 8 4 6 7 3 0 1 2 2 4 5 5 3 4 4 3 3 4 4 5 5 6 4 4 5 8 9 8 9 8 7 6 6 6 6 7 7 9 11 12 14 15 16 16 16 16 16 16 19 23 24 23 23 22 22 24 24 23 25 27 27 27 28 29 29 28 26 25 26 27 28 29 31 31 29 28 27
8 6 3 3 4 3 2 5 6 6 8 10 9 3 2 2 3 3 2 4 5 4 4 4 4 5 4 5 6 5 2 1 4 6 9 9 10 11 10 8 7 7 7 9 11 12 15 16 16 17 17 17 18 18 17 17 18 19 22 24 23 24 24 23 23 23 23 24 26 28 30 30 31 31 29 26 25 25 26 26 28 29 29 29 29 29
8 7 5 4 5 3 3 4 4 6 7 6 4 4 2 2 3 4 1 2 4 5 4 3 5 6 6 6 7 3 1 1 5 7 6 7 9 10 9 8 9 10 11 13 14 15 17 18 17 18 18 18 19 19 17 18 19 20 23 24 23 23 24 24 23 23 23 25 26 28 30 31 32 31 30 28 27 28 29 29 29 28 28 27 28 29
5 6 6 4 4 4 4 4 5 6 6 4 4 4 3 3 3 3 2 3 2 5 6 5 7 8 6 7 6 3 2 3 6 7 6 6 8 9 8 8 9 12 15 16 16 16 17 17 16 17 17 18 20 21 19 18 19 21 22 24 24 23 23 24 25 24 24 26 28 29 31 31 31 29 28 29 30 32 33 33 32 31 30 28 28 29
2 2 4 4 5 7 7 5 4 4 4 4 5 4 4 3 4 3 5 5 3 6 7 8 9 9 7 7 5 4 4 5 6 8 9 7 8 9 10 9 9 11 14 17 17 17 16 16 16 17 18 20 21 22 20 19 20 21 22 24 24 23 23 25 26 26 26 29 31 32 33 32 30 28 28 30 33 34 35 35 35 34 33 31 30 29
1 0 2 4 6 9 9 6 4 4 4 5 6 6 5 3 4 1 6 4 6 8 7 7 9 9 7 6 5 4 7 8 8 10 10 6 6 8 10 13 14 15 16 17 17 16 14 15 16 18 21 23 22 22 20 19 20 22 22 22 22 23 23 25 26 25 26 30 33 35 35 32 29 28 29 32 34 34 36 37 36 36 35 34 32 30
0 1 2 3 4 5 5 5 5 4 3 4 4 3 2 2 1 5 4 3 5 8 6 6 9 8 7 7 7 6 8 9 10 11 10 9 9 9 10 12 13 14 16 16 16 14 12 14 17 19 22 24 23 22 20 18 20 23 23 22 24 25 24 24 25 25 27 31 33 33 33 31 29 30 33 36 35 34 37 39 37 36 36 35 33 32
3 1 2 3 3 3 3 4 5 5 2 3 4 1 1 3 4 4 2 3 5 6 5 5 7 7 7 8 8 8 9 9 10 11 11 12 12 11 11 10 9 11 13 13 14 13 11 13 17 21 25 27 25 23 21 19 21 24 23 24 28 27 24 24 27 28 30 32 32 32 32 32 33 35 37 37 36 34 37 39 37 36 35 34 33 32
3 3 4 4 3 3 4 5 5 3 1 2 3 2 4 5 4 4 6 8 8 6 5 4 5 7 8 7 7 9 9 10 11 11 11 12 12 12 11 8 7 9 11 13 15 14 12 14 18 22 27 29 28 25 22 21 22 24 26 29 29 26 24 27 29 30 32 33 33 34 35 35 37 39 38 38 37 34 35 37 35 34 33 32 30 29
4 6 5 5 3 3 4 6 6 3 2 3 4 5 8 8 7 7 7 7 7 6 5 4 6 7 7 7 7 8 8 10 11 12 12 12 11 9 7 6 7 9 12 15 18 17 15 17 20 24 28 32 32 28 25 24 23 24 28 31 29 26 26 29 30 31 33 34 35 37 37 38 40 40 39 38 36 33 34 35 34 32 31 30 28 27
6 5 3 3 5 4 6 10 10 7 7 9 8 8 9 9 9 8 6 5 6 7 6 5 6 7 6 6 6 7 8 10 11 11 10 8 7 7 6 7 9 11 13 16 19 19 19 19 22 24 26 32 35 31 27 25 24 25 30 31 29 27 27 28 30 32 34 35 37 39 38 38 40 40 39 38 36 33 33 33 32 31 30 28 27 27
6 6 5 6 7 6 8 11 10 8 10 11 10 10 10 9 8 7 6 7 7 7 6 6 6 6 6 6 6 7 9 8 7 7 7 6 7 8 7 7 11 14 17 18 19 20 21 20 21 22 24 30 35 33 28 26 26 27 29 30 29 27 27 27 29 32 34 37 39 39 38 37 37 39 39 38 35 33 33 32 30 29 28 28 27 26
3 4 5 7 9 9 11 14 12 9 10 10 9 9 9 9 10 9 7 6 5 5 5 4 3 3 4 4 4 5 7 6 5 5 7 7 8 8 8 8 12 16 20 21 20 20 20 20 21 22 24 28 33 34 31 30 31 30 29 29 27 26 27 30 31 32 35 39 39 39 38 37 36 36 37 37 35 33 33 33 31 29 29 30 29 27
1 2 3 4 7 9 11 13 11 9 10 11 10 10 8 8 9 8 5 4 4 4 5 5 4 3 3 4 4 4 6 6 4 4 7 8 9 9 9 12 15 18 21 22 22 21 22 23 24 25 27 30 33 33 33 34 35 34 30 28 27 27 29 33 34 34 37 39 38 38 38 36 35 35 36 36 37 36 36 36 34 32 34 36 35 33
3 5 5 3 6 9 10 10 8 6 7 9 9 6 3 3 4 4 3 5 5 5 5 6 5 3 3 4 4 4 5 7 6 5 7 8 9 10 12 15 18 21 23 24 25 25 26 26 26 27 29 32 34 34 35 37 39 37 33 29 29 29 31 34 35 35 36 37 36 36 36 34 35 35 35 35 36 36 38 40 38 35 36 39 39 37
6 9 8 5 8 12 12 12 8 5 7 10 6 1 3 3 3 3 3 4 3 3 4 4 5 5 4 4 4 4 5 7 7 7 8 9 12 14 15 17 18 21 24 26 25 26 27 28 29 28 30 34 36 36 38 40 42 42 38 33 32 33 34 34 33 33 34 35 34 34 33 33 35 35 34 35 34 33 34 37 38 37 37 38 39 38
Wind_Direction
132 151 166 199 215 218 216 210 223 248 307 334 250 263 262 271 273 259 266 267 208 278 271 258 273 279 279 278 277 276 279 273 264 264 269 274 275 275 273 270 269 266 271 320 358 345 334 317 302 289 278 269 261 254 247 243 239 236 233 229 226 223 220 216 213 211 209 208 208 209 213 216 217 217 217 218 219 219 220 220 219 218 217 217 217 216
117 185 212 222 221 218 224 230 248 277 316 287 256 277 269 250 271 268 269 281 248 244 262 248 273 279 280 279 271 267 269 264 260 262 271 273 275 277 271 269 273 275 292 5 17 3 351 325 308 296 282 269 261 256 248 244 241 238 233 229 227 223 217 215 214 211 209 210 209 209 213 215 215 216 217 217 219 219 220 220 219 218 217 217 217 217
189 218 233 234 230 276 17 67 90 241 251 256 249 282 282 253 277 274 261 292 342 215 275 287 281 280 277 270 260 250 249 259 267 262 262 268 272 272 269 277 291 308 334 10 13 348 329 315 314 310 296 282 271 265 257 250 245 238 232 229 227 223 219 216 214 212 212 212 211 212 214 214 214 217 219 219 220 220 219 219 218 218 217 217 217 217
223 238 238 236 218 214 266 83 91 291 255 231 224 267 276 260 279 273 262 319 341 242 276 297 289 284 271 262 258 254 249 259 271 265 256 257 259 265 278 303 326 341 347 354 347 320 316 321 325 321 313 303 287 276 268 258 249 241 235 231 226 224 221 217 215 214 213 212 211 212 216 217 215 219 220 220 222 222 220 219 219 219 218 217 217 216
237 231 215 204 180 196 232 228 161 263 264 229 209 231 261 259 249 251 276 335 329 286 299 316 301 293 265 257 273 290 274 256 265 270 261 254 253 271 293 313 6 17 357 346 329 314 324 326 323 326 329 321 305 292 283 272 259 249 242 235 229 225 222 219 216 213 210 208 207 206 209 212 212 216 216 216 219 220 219 219 219 219 218 217 217 217
256 236 147 126 156 172 200 231 210 215 251 267 217 213 238 254 253 257 288 347 349 313 344 6 324 301 6 87 278 301 329 283 261 248 251 269 338 304 292 343 45 26 327 309 292 302 329 314 318 339 349 343 329 317 303 289 275 261 251 242 233 227 224 221 216 211 208 206 203 199 198 197 198 203 209 213 215 214 216 218 218 219 218 217 217 218
260 270 143 146 136 128 164 237 223 191 231 285 237 209 224 242 252 259 279 332 308 258 295 58 19 285 286 219 254 263 332 282 259 244 258 328 343 291 332 42 58 305 298 308 308 341 332 305 326 352 354 350 343 338 324 305 291 273 258 247 239 232 227 222 217 212 208 205 204 202 201 200 199 203 211 215 215 215 216 217 217 218 218 218 218 218
210 355 46 98 108 123 170 241 216 169 180 263 233 189 201 223 234 229 221 225 237 277 314 100 145 274 284 257 253 189 172 253 261 264 285 316 294 302 37 55 34 314 333 326 321 330 295 296 354 354 350 353 349 347 343 326 308 287 266 250 241 236 230 225 219 213 210 208 207 207 208 210 210 212 217 217 215 217 216 215 216 217 217 217 217 217
148 159 162 134 111 159 201 222 184 158 182 252 195 145 174 203 207 166 164 204 265 345 313 251 149 254 279 275 25 82 193 250 268 274 283 282 284 325 47 50 0 335 325 295 282 299 308 339 359 351 353 2 358 355 356 348 331 307 280 255 240 233 229 226 222 217 214 213 212 212 212 215 218 219 221 221 217 217 216 215 216 216 216 216 216 216
186 208 187 149 141 210 219 218 177 165 194 228 116 93 71 65 66 90 132 136 53 315 253 213 167 237 280 281 89 69 259 260 263 269 275 266 268 35 62 40 339 331 324 312 304 338 351 345 351 356 2 10 10 4 2 0 349 329 301 266 244 232 227 225 223 221 217 216 216 217 217 219 221 220 220 221 218 217 216 215 215 216 216 216 215 215
240 159 157 162 187 203 177 120 186 172 170 136 105 68 41 40 39 48 36 90 58 285 228 192 184 185 283 291 134 186 231 219 239 298 307 299 329 77 98 204 303 335 322 332 347 351 347 346 0 8 8 10 13 12 10 8 359 344 327 287 255 237 228 223 221 221 221 219 218 220 222 223 224 221 218 218 216 214 213 213 214 215 216 216 216 216
44 136 219 235 200 144 115 77 1 68 114 107 92 66 32 346 12 26 353 49 169 262 238 198 187 179 234 262 334 278 259 224 227 301 305 303 312 53 103 281 321 347 328 355 2 345 345 357 6 9 9 8 10 12 11 10 6 356 346 325 283 248 233 227 222 220 221 221 221 223 225 226 227 225 222 219 218 215 213 212 212 212 214 215 216 216
283 208 234 279 210 147 127 135 347 18 66 109 109 120 226 309 342 346 311 77 218 256 275 237 185 208 241 259 292 279 278 268 225 230 254 276 292 325 42 339 337 357 351 2 356 344 357 6 6 5 5 7 11 11 9 9 10 6 359 343 315 282 249 236 229 224 222 223 224 225 227 229 229 228 228 226 224 222 218 215 212 211 212 213 214 216
291 260 197 175 258 174 154 181 235 247 169 161 158 159 166 196 246 260 254 258 265 273 308 316 189 266 282 281 247 248 269 288 224 225 248 251 270 296 333 333 352 357 347 346 345 358 11 10 10 7 5 9 13 13 14 15 13 12 10 356 332 311 278 248 237 231 227 227 228 230 231 233 234 233 233 232 230 230 227 222 218 217 216 216 217 219
253 285 212 178 232 168 179 196 170 137 164 183 166 138 162 179 193 224 224 239 260 274 308 300 194 232 263 284 251 236 257 289 275 265 272 261 271 312 357 3 11 -0 350 350 359 16 21 14 14 14 13 15 16 17 20 20 18 17 14 5 349 331 308 278 256 244 238 235 234 234 235 237 239 239 240 239 237 235 233 230 226 225 223 222 223 223
214 265 245 216 137 150 181 198 122 115 165 206 126 114 222 206 177 226 235 204 207 288 285 251 225 236 242 284 282 264 269 293 304 325 348 347 12 56 46 24 19 9 9 11 19 26 23 17 18 19 20 19 20 23 24 24 24 22 17 11 4 351 333 311 285 265 253 248 243 241 241 241 242 243 244 244 243 240 239 237 233 232 231 229 228 228
231 265 259 20 358 179 184 177 139 156 193 161 126 188 225 175 146 236 274 144 99 266 251 205 251 277 294 293 294 321 57 6 1 0 360 360 39 60 45 32 33 26 23 25 33 33 22 18 18 19 20 20 21 24 25 27 28 29 25 19 14 7 358 341 318 297 279 266 257 251 248 247 246 246 246 246 247 245 244 242 240 238 236 234 232 231
232 267 248 163 220 243 177 139 109 196 163 140 178 216 198 133 135 152 267 338 225 246 246 223 252 273 287 285 322 52 73 35 15 1 355 3 31 42 37 45 49 40 31 28 32 31 24 20 16 16 19 21 23 24 25 26 28 31 31 27 22 16 11 2 346 327 310 293 277 266 259 255 252 251 250 249 249 249 247 246 244 241 239 237 236 235
215 261 268 187 200 226 71 98 281 292 185 153 205 232 127 181 227 158 171 236 241 247 256 225 240 255 254 253 278 286 266 274 14 5 16 23 25 26 29 38 42 40 32 26 28 23 20 19 16 17 19 21 24 24 24 24 25 28 28 27 25 21 18 16 8 354 337 321 302 286 274 265 260 256 255 253 251 251 250 249 248 245 243 241 239 237
150 238 269 14 182 171 74 160 206 232 267 81 322 302 108 179 214 200 175 169 234 255 259 233 230 234 231 245 268 279 278 27 21 16 27 35 34 28 29 29 30 36 34 25 26 21 19 20 19 22 23 22 25 25 25 25 25 25 23 22 22 20 19 19 17 12 1 346 329 310 293 280 272 265 262 258 254 252 250 250 250 250 249 246 243 239
80 243 248 297 3 205 187 206 190 188 195 162 215 243 223 204 222 272 232 175 224 252 259 257 248 235 229 249 270 288 25 44 36 47 52 48 47 38 33 33 30 39 42 36 34 28 29 29 25 27 26 25 26 27 27 26 25 25 22 19 17 16 15 14 14 14 11 4 352 335 317 302 291 281 273 267 262 257 254 252 252 252 253 250 246 242
188 243 238 235 250 227 225 221 191 190 193 187 199 210 218 223 237 270 250 206 209 238 244 256 258 248 242 283 297 337 57 53 46 67 66 51 51 46 36 38 37 42 49 53 53 46 44 38 31 29 29 29 29 28 27 25 24 24 22 19 17 15 13 10 9 10 12 11 6 356 344 330 317 304 290 278 270 265 261 259 256 255 253 251 249 246
167 159 239 239 236 240 252 246 188 184 197 211 218 208 214 211 196 233 249 234 227 242 240 257 263 246 216 266 303 9 61 60 40 52 59 46 43 43 38 34 31 34 35 33 34 37 32 26 23 22 23 23 23 23 23 22 22 21 20 18 17 15 12 9 8 8 10 11 10 8 4 356 345 329 310 293 283 277 273 270 266 261 256 252 250 248
124 135 232 248 256 277 279 277 337 93 118 243 245 214 206 218 216 235 254 249 241 247 249 259 262 241 207 258 347 61 72 63 46 45 47 36 28 29 26 26 26 24 25 24 23 24 19 19 20 20 18 16 15 15 15 15 16 15 15 15 13 11 9 8 8 9 10 10 9 11 11 8 2 351 334 318 304 295 289 284 278 271 264 258 254 250
328 200 217 247 266 291 290 285 324 28 123 224 237 228 222 242 261 279 291 272 246 240 240 254 260 248 250 338 74 81 74 58 53 48 45 38 26 19 15 18 17 14 17 18 18 18 17 19 20 19 18 15 13 12 11 11 11 10 11 10 9 7 6 7 8 8 8 8 7 8 8 7 6 1 352 339 325 315 305 297 288 279 271 265 259 255
328 291 254 258 250 246 260 263 243 217 250 232 272 281 267 234 246 269 276 261 250 235 233 248 263 259 265 315 49 72 79 75 58 45 50 44 25 19 16 12 11 14 14 11 11 12 10 12 14 11 12 12 11 12 11 10 9 8 8 7 6 4 4 5 6 6 6 6 5 5 5 4 3 1 358 351 341 331 320 309 299 287 277 270 264 258
158 270 255 255 258 258 271 278 292 341 283 254 283 297 299 277 251 257 256 246 258 262 248 247 260 265 270 286 318 10 68 97 87 58 56 43 22 18 11 9 18 23 17 9 5 3 2 3 3 1 2 4 5 6 7 7 7 5 5 3 2 2 2 2 3 3 4 4 3 2 1 1 360 358 357 355 351 344 334 322 310 299 288 279 270 262
171 252 250 251 258 261 269 279 294 306 274 259 274 279 280 282 272 261 256 255 272 281 262 252 269 278 279 279 285 311 8 85 102 91 78 61 9 354 349 359 12 11 8 5 355 357 1 353 347 350 354 358 0 1 1 2 2 2 1 359 358 359 360 359 360 360 359 360 0 359 358 357 357 356 356 355 355 352 347 337 325 313 302 290 279 270
168 263 263 264 273 275 281 290 298 296 280 272 275 271 271 272 262 256 258 262 268 267 268 284 288 282 281 275 243 219 260 127 123 131 150 189 256 295 329 352 0 352 346 345 341 343 345 335 334 339 342 350 355 356 358 358 358 358 357 355 355 356 357 357 356 356 355 355 355 354 353 353 353 354 355 355 354 353 351 347 340 329 316 303 290 280
174 262 266 272 285 284 285 291 297 300 295 286 278 275 274 269 263 264 268 268 264 262 268 276 273 272 275 252 161 152 183 168 157 178 203 215 239 245 258 296 311 305 307 313 316 316 323 330 334 335 337 346 351 352 354 354 354 354 352 352 352 352 354 354 352 351 351 350 350 349 349 349 349 350 351 352 352 351 350 349 346 338 327 315 302 291
278 287 324 2 305 282 278 283 289 297 296 290 288 281 272 267 266 269 272 270 266 266 267 267 265 266 266 127 143 151 161 203 192 203 220 221 228 243 258 272 268 270 274 278 288 298 308 318 326 332 335 338 341 346 348 348 348 349 348 348 347 347 348 349 347 345 345 345 345 345 346 346 346 346 346 347 348 349 349 348 346 343 336 326 315 303
303 306 347 349 293 273 279 288 296 313 308 293 283 273 266 264 262 260 259 260 263 267 271 270 268 264 178 117 123 154 164 235 233 227 233 220 216 234 251 267 273 273 273 276 285 290 293 302 313 320 323 326 331 336 339 340 342 344 344 343 342 342 344 343 342 340 340 341 342 343 343 343 342 341 341 342 343 344 345 345 344 343 340 334 326 315
259 281 306 295 280 278 282 288 326 353 311 283 266 258 258 260 261 258 258 261 260 261 267 267 265 232 162 147 133 181 196 235 246 248 251 234 221 227 238 256 266 262 263 268 270 271 273 281 291 301 311 317 323 328 332 337 340 339 339 339 338 339 340 339 339 338 337 338 339 339 339 339 338 337 336 336 336 337 339 340 340 339 337 334 329 320
244 259 262 251 258 273 281 309 15 309 275 271 265 241 243 253 258 260 260 258 249 228 233 252 140 127 158 172 186 211 219 228 245 259 266 258 241 239 250 261 265 261 255 253 256 261 264 275 288 300 308 311 316 322 326 330 333 331 333 335 336 337 337 335 335 335 334 335 336 336 336 335 334 332 331 331 332 333 334 334 334 334 332 330 327 321
249 253 251 230 234 268 301 348 298 269 257 269 295 246 228 238 234 252 262 248 233 203 112 102 117 149 179 196 206 218 228 237 253 263 265 257 234 232 251 263 267 269 268 269 274 273 273 283 291 299 304 307 311 315 317 321 325 324 326 331 332 331 332 331 330 331 332 332 332 333 333 332 330 328 327 327 329 330 330 330 329 328 328 326 322 318
238 242 240 224 226 266 16 223 252 270 296 292 281 259 183 111 146 219 273 246 218 175 129 144 196 206 203 218 230 231 231 247 274 267 257 249 229 223 237 249 259 265 268 276 282 281 283 286 287 291 297 301 304 306 308 313 317 318 321 325 326 325 325 326 325 326 327 327 329 330 330 330 328 326 324 324 325 325 325 325 324 323 324 322 319 316
222 224 221 235 236 227 219 229 256 314 316 287 276 257 165 161 164 169 259 254 213 176 150 171 215 232 232 239 248 246 230 295 305 275 253 240 225 219 223 232 242 249 256 265 270 275 281 283 283 287 290 293 296 298 302 307 311 314 317 319 320 319 319 319 317 318 320 321 323 325 326 326 326 324 322 322 322 322 321 320 319 318 319 318 315 313
214 215 206 230 244 218 226 260 278 293 280 260 261 267 238 211 179 148 115 286 217 197 190 181 212 231 231 237 248 244 104 336 287 280 260 231 220 221 225 232 236 239 248 259 266 271 274 276 279 283 285 287 290 292 296 301 305 309 312 312 313 313 312 311 310 313 315 316 318 320 321 321 322 321 319 319 320 320 320 318 316 315 314 312 309 307
194 212 204 218 252 235 231 251 249 258 264 225 209 240 240 215 175 125 11 321 210 203 213 203 224 239 230 235 238 183 136 241 266 278 267 231 220 223 227 237 242 242 249 256 260 264 269 274 278 280 280 280 284 289 294 296 298 303 305 306 308 307 305 305 307 310 312 312 314 316 316 317 318 316 314 314 316 317 317 316 314 312 311 308 304 301
96 211 213 210 237 241 241 252 249 251 257 211 199 214 218 185 113 64 307 288 188 211 218 197 219 239 231 232 227 169 185 228 246 264 261 236 224 228 227 234 241 244 251 257 260 262 267 274 275 274 274 276 282 289 292 291 293 295 296 298 300 298 297 299 303 306 307 308 311 313 313 315 315 311 309 311 313 314 313 312 311 310 309 306 302 298
46 214 231 220 231 239 240 249 258 248 231 210 202 203 195 128 76 292 267 234 183 223 232 198 217 237 226 221 215 190 216 232 241 260 267 253 236 236 235 241 246 250 254 259 265 268 268 270 270 270 273 278 284 288 288 287 289 289 290 292 289 285 289 296 298 299 300 303 307 309 310 311 311 307 307 308 310 310 309 307 307 307 306 304 301 297
262 60 281 242 229 239 242 249 269 276 246 186 176 188 158 107 178 228 224 160 183 225 236 213 222 236 228 222 222 221 236 247 254 264 270 264 253 247 245 246 250 257 261 264 271 275 273 274 276 276 278 283 287 288 286 284 284 285 287 286 282 284 293 295 293 294 299 302 304 304 305 306 304 303 304 306 307 307 305 304 304 304 303 302 299 296
207 177 265 230 203 228 247 239 249 271 272 132 122 65 104 170 202 236 281 280 250 255 261 239 231 237 237 235 238 241 251 263 267 268 267 265 262 259 257 252 249 260 270 276 281 286 286 284 284 284 286 289 290 289 287 284 282 285 286 283 284 291 297 294 293 298 301 301 301 301 300 300 299 301 302 302 304 304 301 300 301 301 300 299 296 294
215 196 236 235 214 214 225 228 222 219 231 122 136 189 236 220 225 285 302 297 295 295 287 265 252 245 238 238 249 256 263 270 272 272 270 267 264 261 261 262 264 273 285 292 294 299 301 292 288 289 291 291 291 291 289 284 283 283 282 283 288 295 297 295 297 300 300 299 299 298 297 298 299 300 300 300 301 300 297 296 297 297 296 294 291 288
213 198 220 244 241 203 212 247 252 227 243 248 207 222 255 267 275 282 285 289 292 286 276 271 268 258 242 235 247 259 266 268 269 272 272 272 272 274 281 292 292 292 297 299 300 304 305 297 292 291 291 292 292 292 290 286 282 278 279 284 290 294 295 296 298 298 297 297 296 295 297 298 298 297 297 297 297 296 293 292 292 291 290 289 285 281
226 209 213 266 276 265 251 260 265 269 273 270 260 255 262 268 275 281 280 275 269 268 266 257 255 260 258 254 257 260 262 267 272 278 284 291 295 299 308 310 305 305 303 301 303 307 306 300 294 291 291 292 293 292 291 289 282 277 280 287 292 293 294 295 295 295 294 293 293 293 295 296 296 296 296 295 294 290 287 286 285 285 284 283 280 275
244 221 218 249 265 271 265 261 260 259 261 265 268 270 268 265 268 271 268 265 265 264 264 259 259 270 276 277 277 274 274 284 302 307 312 321 311 306 313 312 310 310 305 302 305 308 306 300 294 291 291 291 292 294 295 292 287 283 285 290 293 294 294 294 292 292 291 290 291 292 293 293 293 293 293 293 291 289 285 282 279 278 277 276 274 272
242 200 205 236 246 246 253 262 265 259 257 258 260 264 269 272 272 271 272 279 285 284 289 308 323 315 311 315 315 304 303 322 351 336 320 314 306 305 310 309 308 307 304 304 308 308 304 299 293 292 291 289 291 295 297 294 291 290 291 293 295 296 296 293 291 290 289 288 290 290 290 290 290 289 290 290 288 286 283 280 278 274 271 269 267 266
151 176 190 216 247 253 257 264 270 273 269 264 256 256 262 271 275 281 299 343 8 356 348 1 17 27 26 12 9 359 330 324 338 329 309 302 301 304 308 309 308 305 304 307 310 309 304 299 296 295 292 290 292 296 296 294 293 293 295 296 298 298 296 293 292 290 288 288 288 288 289 289 288 286 286 286 286 284 280 277 274 271 270 269 265 261
152 237 231 210 253 262 261 258 259 265 270 268 265 263 276 304 311 324 3 36 42 23 4 357 354 14 40 26 12 358 319 305 314 315 301 295 297 302 308 311 310 307 307 311 311 308 305 301 299 298 295 294 296 298 297 296 295 296 298 299 299 299 295 293 292 290 288 287 287 287 288 288 286 285 284 284 284 284 283 280 275 269 266 267 266 263
209 233 233 224 244 258 264 263 257 244 258 271 284 25 60 17 21 49 45 35 42 38 23 3 338 331 339 340 345 337 308 303 316 319 306 297 298 304 310 311 309 308 310 311 311 309 307 306 304 302 299 299 301 301 299 298 297 297 299 300 299 297 293 291 289 286 285 285 285 285 286 286 285 285 284 282 281 280 282 283 281 275 268 264 265 265